Tracking 17887 objects as of 10-December-2016
HD Live streaming from Space Station
objects crossing your sky now

DELTA 2 DEB

Track DELTA 2 DEB now!
10-day predictions


NORAD ID: 27765
Int'l Code: 2000-040D
Perigee: 178.1 km
Apogee: 3,308.0 km
Inclination: 38.9 °
Period: 121.2 minutes
Semi major axis: 8114 km
RCS: 0.0144 m2 (small)
Launch date: July 16, 2000
Source: United States (US)
Launch site: AIR FORCE EASTERN TEST RANGE (AFETR)

Note: This is SATELLITE DEBRIS
Your satellite tracking list
Your tracking list is empty





NASA's NSSDC Master Catalog

Two Line Element Set (TLE):
1 27765U 00040D   16344.56728926  .00151247  80733-6  28445-3 0  9997
2 27765  38.8543 184.5756 1928713 289.3927  50.8889 11.87811769405801
Source of the keplerian elements: AFSPC